Find Starlink 36109

NORAD ID: 66943 Int'l Des: 2025-286 Owner: SPXS Country: US Constellation: starlink operational
LEOCIRCULAR

現在のビュー

3D地球を読み込み中...

About Starlink 36109

Starlink 36109 (NORAD 66943) is a starlink constellation satellite (v2 mini) launched Dec 7, 2025 by SPXS of US. It operates in LEO, CIRCULAR orbit with a mass of 575.00 kg.

Starlink 36109について

説明を読み込み中...

次回通過

Passes for default location (London). Set your location on the main map for personalized predictions.

高度履歴

Loading altitude history...

軌道要素

1 66943U 25286U 26195.19595466 .00022469 00000-0 67440-3 0 9996
2 66943 53.1569 128.8443 0001184 84.7420 275.3718 15.34387290 34741
Epoch: Jul 14, 2026 • Age: 5 hours

現在のステータス

高度 466.4 km
遠地点 / 近地点 N/A
速度 7.64 km/s
衛星直下点 43.67°N, 178.54°W
打ち上げ日 Dec 7, 2025
運用期間 0.5 years
タイプ internet

技術仕様

分類 Payload
質量 575.00 kg
乾燥質量 530.00 kg
総質量 575.00 kg
長さ 0.30 m
直径 4.10 m
スパン 29.00 m
形状 Box + pan
製造者 SPXS
バスタイプ Starlink V2MO
フェーズステータス In Orbit
所有者/国 SPXS/US

Most Searched